Location: Washington
(38.8833°N, 77.0167°W)
Time: 04:35:02
(UTC-04:00)

ISS - Visible Passes

Search period start: 17 May 2025 00:00
Search period end: 27 May 2025 00:00
Orbit: 416 x 419 km, 51.6° (Epoch: 16 May)

Date Brightness Start Highest point End Pass type
(mag) Time Alt. Az. Time Alt. Az. Time Alt. Az.
17 May -0.6 20:53:09 10° NNW 20:54:16 11° NNW 20:55:24 10° N visible
17 May -0.6 22:31:33 10° N 22:32:17 11° N 22:33:03 10° NNE visible
18 May -0.6 00:07:01 10° NNW 00:07:44 14° NNW 00:07:44 14° NNW visible
18 May -1.2 23:19:15 10° NNW 23:21:20 19° NNE 23:21:20 19° NNE visible
19 May -1.1 22:31:32 10° NNW 22:33:35 15° NNE 22:34:56 13° NE visible
20 May -0.5 00:07:30 10° NW 00:07:51 12° NW 00:07:51 12° NW visible
20 May -0.9 21:43:51 10° NNW 21:45:18 12° NNE 21:46:45 10° NE visible
20 May -1.6 23:19:35 10° NW 23:21:27 27° NNW 23:21:27 27° NNW visible
21 May -0.8 20:56:17 10° N 20:56:58 10° N 20:57:39 10° NNE visible
21 May -2.1 22:31:44 10° NNW 22:34:39 27° NNE 22:35:05 26° NE visible
22 May -1.5 21:43:54 10° NNW 21:46:26 19° NNE 21:48:43 11° ENE visible
22 May -1.5 23:20:09 10° NW 23:21:37 24° WNW 23:21:37 24° WNW visible
23 May -1.2 20:56:08 10° NNW 20:58:08 15° NNE 21:00:09 10° NE visible
23 May -3.6 22:32:05 10° NW 22:35:17 66° NNE 22:35:17 66° NNE visible
24 May -2.8 21:44:06 10° NW 21:47:17 39° NNE 21:48:58 22° E visible
24 May -1.0 23:21:17 10° W 23:21:53 13° W 23:21:53 13° W visible
25 May -2.1 20:56:12 10° NNW 20:59:05 26° NNE 21:01:58 10° E visible
25 May -2.7 22:32:47 10° WNW 22:35:36 36° WSW 22:35:36 36° WSW visible
26 May -3.7 21:44:32 10° NW 21:47:52 71° SW 21:49:22 30° SE visible
